User: anonymous   Login
Location: Orange Harbor Mobile Home Park
(26.6923°N, 81.7937°W)
Time: 22:56:12
(UTC+00:00)
Language:

Cosmos 2285 Rocket - Orbit

View from above orbital plane
View from above orbital plane
View from above satellite
View from above satellite

Ground track
Ground track

The orbit data is extracted from the following two-line orbital elements,

1 23190U 94045B   20327.89610239 +.00000054 +00000-0 +81211-4 0  9995
2 23190 074.0280 183.3358 0020019 236.4777 123.4431 13.74092296319315
Epoch (UTC): 22 November 2020 21:30:23
Eccentricity: 0.0020019
inclination: 74.0280°
perigee height: 970 km
apogee height: 999 km
right ascension of ascending node: 183.3358°
argument of perigee: 236.4777°
revolutions per day: 13.74092296
mean anomaly at epoch: 123.4431°
orbit number at epoch: 31931

The dashed part of the orbit path shows where the satellite is in the earth's shadow,  

DLR